Back to catalog

COSMOS 1980

AliveMilitaryLEO
NORAD 19649·PAYLOAD·🇷🇺 Russia

Launched Nov 23, 1988 from Baikonur Cosmodrome

Loading…

Next Passes (next 24 hours)

TLE

FreshSource: Space-Track

Epoch: Sep 14, 2026, 03:28 UTC

1 19649U 88102A   26257.14457382 -.00000226  00000-0 -91507-4 0  9992
2 19649  71.0008 178.1881 0007283 237.5783 122.4636 14.15229575951804

Track COSMOS 1980 in real time with AllMySat

Download on the App Store